Pensacola Naval Air Station/Forrest Sherman field
KNPA : now visible

Airfield :











YOU CAN JOIN US ON...

 
LOGIN :

Register | Disclaimer

   EN    FR    IT 

 









Legend :    VFR   Marginal VFR   IFR   Intensive IFR   Very Intensive IFR
Visi :
Ceiling :
>= 8 km
>= 3000ft
5 to 8 km
1000 to 3000 ft
1500m to 5 km
500 to 1000 ft
800 to 1500m
200 to 500 ft
< 800m
< 200 ft
Symbols :   Thunderstorms  Fog  Heavy snow  Heavy precipitations  Wind > 20 kt






- Airport Elevation : 28 ft


KNPA - Pensacola Naval Air Station/Forrest Sherman field

CURRENT METAR :
  • 171756Z 12014KT 10SM FEW035 SCT170 BKN250 27/19 A3012 RMK AO2 SLP199 T02720189 10278 20228 58008 PNO $

EXPIRED METARs :
  • 171656Z 12014KT 10SM SCT035 SCT200 BKN250 27/19 A3012 RMK AO2 SLP202 T02720194 PNO $
  • 171556Z 13013KT 10SM SCT035 BKN200 27/18 A3014 RMK AO2 SLP208 SCT V BKN031 T02670183 PNO $

TAF TAF KNPA
Valid from the 17 at 15:00 until the 18 at 15:00 UTC


1715/1815 14013G20KT 9999 SCT030 BKN200 QNH3006INS
TEMPO 1715/1717 BKN030
FM180100 14007KT 9999 SCT030 BKN100 QNH3004INS
TEMPO 1812/1815 BKN020 T28/1721Z T21/1812Z FN20033
KZJX FIR / North America



MET'MAP, your aeronautical weather chart ! - Copyright ORBIFLY December 2007 - Disclaimer

ORBIFLY MET'MAP TEAM :

Programming & Development : Alexandra Zaïnal
Concept & original design : Baudouin d'Aumeries
Assistance for programming : Marc-Olivier Méhu
Technical & hardware support : Manuel Goepfert

Contact : metmap@orbifly.com




SOURCES & CREDITS :

   NOAA       Earth
Advisory